BHUTAN-1 (43591 NORAD) Tracking and Keplerian Element Data

This shows tracking and keplerian element data for the satellite.

Feedback or suggestion? Click here.




ElementValue
Catalog43591
NameBHUTAN-1
Epoch Orbit1568
Epoch Day323.2060185
Epoch Year2018
RAAN324.8822
Inclination51.6394
Eccentricity0.0006988
Argument of Perigee80.2887
Mean Anonmoly279.8894
Mean Motion15.56697382
Decay Rate0.00011669
L11 43591U 98067PF 18323.20601850 .00011669 00000-0 16681-3 0 9999
L22 43591 51.6394 324.8822 0006988 80.2887 279.8894 15.56697382 15684

Live tracking and technical data element details for BHUTAN-1 (NORAD 43591). BHUTAN-1 can be tracked NOW for your location showing map with azimuth and elevation plus other details from your city location.

Track the satellite on the map from your city or location and see movement details for azimuth, elevation, latitude, longitude, range, height, and movement on the map or in text.







IsCatalogInMostPopularTable: catalog: 43591, numindb: 36
Update: records affected: 1



GetName: 43591 BHUTAN-1

Hit Count: updated at: Tue, 20 Nov 2018 11:14:14 GMT